Theta_e
344 342 338 335 334 337 333 333 337 339 340 340 340 340 340 339 338 338 336 324 318 334 340 338 337 340 338 337 330 329 331 337 335 334 330 322 318 322 327 333 335 336 334
345 341 339 337 335 336 337 333 333 333 333 334 336 337 339 338 337 335 334 320 319 334 338 338 338 338 337 328 324 321 326 329 329 324 318 317 316 316 318 318 321 323 329
344 342 344 336 336 335 336 335 334 333 331 330 329 329 336 337 332 332 333 320 321 334 336 339 329 334 319 319 320 318 318 318 318 317 316 316 316 316 316 316 315 315 318
344 344 343 337 339 338 339 335 334 331 331 330 329 328 330 336 330 331 334 321 327 337 337 330 318 319 318 317 317 316 316 316 316 316 317 317 316 316 316 316 316 316 315
343 342 342 339 339 339 336 334 333 332 332 331 330 330 333 336 330 335 333 324 333 338 337 323 316 315 317 316 316 317 317 317 317 317 317 316 316 316 316 316 317 317 317
343 341 338 338 337 337 336 334 333 333 332 332 332 331 333 336 331 333 334 333 334 335 338 326 315 315 317 317 318 319 319 318 318 317 317 317 317 317 317 317 317 317 317
344 341 339 338 336 335 335 334 334 334 333 332 333 333 333 334 334 333 335 332 333 336 338 330 316 315 317 319 320 320 319 318 317 317 318 318 318 318 318 317 317 317 316
340 341 339 339 339 334 332 332 332 331 332 332 332 332 331 332 333 336 335 330 332 335 336 335 317 316 318 320 320 319 319 318 317 318 318 318 318 319 318 317 318 319 320
335 337 340 338 336 333 331 330 331 331 331 330 331 331 328 331 333 334 337 331 329 332 334 333 319 316 318 319 320 319 319 319 318 318 318 318 319 319 319 319 320 321 322
336 336 336 340 337 333 331 332 333 333 333 331 326 325 329 330 332 334 335 336 329 329 330 331 320 316 318 319 319 319 319 319 319 318 318 318 319 320 320 320 321 322 321
335 336 335 337 338 338 338 335 335 335 335 331 329 331 332 329 331 332 335 336 332 332 332 333 321 317 318 319 320 320 319 319 319 319 318 318 320 321 321 321 320 322 322
325 334 335 334 336 335 335 335 335 335 336 332 327 330 334 336 329 331 334 335 335 335 334 332 332 322 318 318 320 321 320 320 319 320 319 319 320 321 322 321 320 321 321
317 327 332 334 334 334 334 333 334 333 335 332 329 328 333 326 323 329 333 335 336 335 335 332 333 332 320 318 319 320 321 321 321 320 320 320 320 322 325 322 320 320 322
313 322 330 333 334 335 334 334 332 332 334 332 328 327 328 328 328 330 331 333 335 333 333 334 330 332 327 318 318 320 321 321 321 321 321 321 322 325 325 324 322 321 320
311 315 324 329 332 332 331 332 332 331 332 332 331 328 329 329 328 327 328 331 331 333 333 334 331 330 329 324 319 319 319 320 321 321 321 323 324 326 326 327 326 323 323
308 310 320 328 329 329 330 330 329 331 332 332 330 330 331 330 329 328 328 329 332 332 333 334 334 331 333 326 321 319 318 318 319 321 322 323 325 327 325 326 328 326 326
306 310 312 326 328 327 326 326 326 328 331 332 331 329 325 323 322 323 327 327 328 333 333 333 334 333 332 332 324 319 318 317 317 319 321 322 324 327 326 327 327 327 327
305 308 311 313 316 323 326 326 325 325 325 326 325 323 323 324 324 322 322 327 326 328 333 334 333 334 330 324 327 321 318 317 316 317 320 322 324 327 327 327 327 326 326
306 306 310 311 313 316 318 323 325 325 325 324 323 323 323 324 324 325 323 322 325 326 328 329 333 334 328 325 328 323 319 318 317 318 320 321 326 328 328 327 327 327 326
305 305 307 310 311 317 320 324 324 324 324 324 323 323 323 324 324 325 324 324 324 325 326 330 329 329 329 325 324 320 319 318 317 320 321 321 323 328 328 328 329 327 327
308 306 307 311 313 319 323 324 324 322 323 323 324 324 323 324 324 324 326 325 325 327 326 328 329 330 331 324 320 318 320 319 318 318 320 321 323 325 328 329 329 329 327
310 308 311 315 319 322 323 323 323 323 323 323 324 324 324 324 325 325 326 326 327 327 327 325 327 329 329 322 320 321 321 320 318 320 322 324 326 327 329 329 329 329 328
317 320 319 320 321 321 322 321 321 322 323 324 324 323 323 323 324 325 325 327 326 330 329 326 327 329 328 323 322 324 322 324 323 322 321 323 325 327 328 329 330 329 329
318 318 318 319 320 320 320 320 320 321 326 324 323 322 323 322 324 324 325 327 327 329 329 327 327 328 325 322 323 322 318 323 325 323 323 323 324 326 328 328 328 329 329
316 317 318 318 319 318 320 321 322 323 323 322 323 325 325 325 325 324 324 326 326 327 327 325 325 323 323 322 322 320 320 320 323 325 326 326 326 325 326 327 328 328 327
315 316 318 319 319 319 320 321 321 323 322 323 322 322 322 324 324 325 325 326 326 327 326 326 323 322 321 320 320 318 319 321 322 323 325 326 326 326 326 326 327 326 326
Wind_Speed
8 14 19 19 18 16 16 16 16 13 12 11 10 10 9 9 7 5 4 6 10 10 12 11 14 14 14 13 11 11 15 16 14 11 8 9 11 11 11 13 14 15 14
7 12 19 20 19 17 14 15 14 14 12 12 12 11 11 10 8 7 5 8 12 12 13 13 15 15 13 12 12 12 13 12 11 10 8 9 9 9 8 7 8 9 10
1 9 16 19 19 18 17 15 15 13 12 11 10 11 11 11 10 9 8 9 14 14 12 13 12 13 12 13 13 11 11 10 10 9 8 9 9 8 8 7 8 8 7
5 7 15 19 19 18 18 16 15 14 13 11 10 10 10 11 10 9 9 10 15 14 11 9 11 13 13 13 12 12 10 9 9 9 8 8 9 8 8 8 8 8 7
6 8 15 19 18 17 16 16 15 14 13 12 11 9 9 11 10 11 10 13 14 15 10 7 11 12 13 13 12 11 10 9 8 8 8 8 8 8 8 8 8 7 7
5 10 13 17 18 17 16 16 15 15 14 13 12 11 10 11 10 12 13 14 16 14 11 9 12 13 14 13 11 9 8 8 8 8 8 8 7 8 7 7 7 7 6
6 10 13 14 17 17 17 16 15 14 15 14 14 13 12 13 11 12 16 16 16 15 13 11 13 14 14 12 10 9 8 8 8 8 8 7 6 6 6 6 6 6 6
7 10 12 13 14 17 17 16 17 17 17 17 16 15 14 14 14 13 15 18 17 16 15 13 14 15 14 12 10 9 8 9 9 8 7 5 5 5 5 5 6 6 6
10 12 14 15 16 18 19 21 21 21 20 18 17 16 16 16 16 16 15 19 19 18 17 16 16 17 15 13 11 10 9 9 8 8 7 5 4 4 4 4 5 5 5
11 15 16 17 18 18 20 20 18 18 17 15 16 17 18 18 17 17 17 16 19 19 18 16 19 19 17 14 12 11 10 10 9 8 6 5 5 4 3 3 3 3 4
11 14 18 19 18 19 20 20 19 18 18 16 15 15 17 19 19 18 19 17 20 19 18 17 20 20 19 16 14 13 12 11 10 9 7 6 5 5 4 2 3 3 3
9 14 17 20 20 20 19 18 18 16 18 16 15 14 14 18 21 20 20 19 21 21 20 20 19 20 21 20 18 16 15 13 12 10 9 8 6 6 5 4 4 3 3
13 13 17 21 22 21 19 18 16 15 16 16 14 10 6 10 15 20 21 20 22 23 22 20 22 23 24 23 22 19 17 15 14 13 11 9 8 7 6 5 4 4 4
16 14 15 17 21 20 19 18 16 15 16 16 14 11 8 9 10 14 19 22 24 25 24 21 27 27 25 25 24 22 20 18 16 14 13 12 10 9 7 4 5 4 4
20 16 17 17 18 20 19 17 18 18 18 19 19 20 15 15 19 18 18 22 25 28 29 26 26 29 29 27 26 25 24 22 20 18 16 14 13 11 10 9 5 3 3
26 20 15 20 19 19 20 20 20 21 21 22 23 25 23 25 27 26 24 24 28 31 31 32 30 32 32 30 29 28 26 24 23 21 19 18 16 14 13 12 11 7 5
30 23 19 17 22 24 24 24 24 25 25 26 26 28 28 26 27 33 31 29 30 34 36 36 35 34 34 31 30 29 28 27 25 25 23 22 20 18 16 13 11 12 8
31 28 22 19 19 23 25 26 25 26 27 27 27 27 26 24 24 28 33 37 33 33 38 40 39 37 37 35 35 31 30 29 29 28 26 24 23 22 21 18 15 13 12
29 30 27 23 21 23 26 26 25 23 25 26 28 27 26 25 24 29 31 34 37 36 38 37 41 41 40 37 38 34 32 31 31 30 29 28 25 26 24 21 21 19 16
28 28 27 25 22 22 22 21 22 24 26 28 29 28 27 28 27 29 31 32 32 36 39 42 40 37 44 46 43 38 33 30 34 34 33 30 30 29 27 25 23 24 21
26 25 24 23 20 20 20 21 23 25 26 28 29 29 30 29 30 31 32 36 37 40 41 43 44 42 50 48 39 39 41 37 37 36 35 34 32 32 30 28 26 26 24
19 19 19 19 17 18 19 21 21 23 25 27 28 29 30 28 27 28 29 32 31 36 42 45 43 45 49 51 44 35 28 35 40 38 38 36 35 32 32 30 28 29 26
2 12 16 16 15 18 19 21 24 24 26 27 27 30 30 29 30 30 29 31 31 42 44 43 44 47 49 49 47 31 15 17 20 33 43 39 37 36 34 34 31 31 29
5 10 16 16 14 16 20 23 25 25 23 23 26 31 31 32 31 31 30 29 30 34 45 46 43 51 53 53 43 37 32 23 15 21 27 33 40 38 36 34 33 33 32
5 2 3 3 7 13 14 16 17 17 16 14 15 19 18 20 21 27 31 29 30 32 25 31 41 40 46 43 45 36 39 40 39 26 17 19 25 36 39 36 35 33 30
2 1 0 2 4 6 4 9 10 13 11 9 5 10 15 13 20 22 24 24 27 29 23 25 22 29 39 37 36 36 35 38 44 43 35 32 27 22 22 25 31 32 34
Wind_Direction
207 184 184 184 183 179 178 179 181 183 184 185 185 188 189 183 181 176 159 154 149 135 141 136 135 138 140 141 144 133 128 124 128 126 126 105 106 115 118 119 115 103 94
183 183 188 187 188 190 188 188 188 188 193 196 198 201 199 203 204 204 185 168 159 151 158 156 150 152 154 155 147 141 144 137 137 131 117 108 104 111 123 117 118 114 113
204 192 191 191 192 198 202 197 194 197 201 202 206 209 199 204 212 205 190 175 167 170 188 174 181 172 165 152 148 145 148 143 139 131 119 111 109 110 114 112 110 121 129
291 215 193 190 194 195 199 201 200 204 202 206 214 211 209 200 206 205 190 177 169 183 192 182 168 173 150 151 148 148 150 145 139 130 121 117 114 109 106 106 106 107 108
247 205 193 195 198 197 198 199 206 206 208 211 213 219 200 199 198 197 190 177 182 190 198 194 178 169 160 155 151 150 149 147 141 132 126 120 114 107 103 103 105 105 104
220 194 196 198 201 204 203 203 206 209 212 214 214 216 208 214 206 205 196 193 196 201 199 199 186 174 166 162 160 160 157 155 148 139 132 124 119 110 107 105 104 102 98
225 207 205 205 206 210 209 209 209 213 218 218 219 218 216 216 225 219 208 202 206 205 206 204 197 184 175 172 170 168 164 159 155 149 140 132 125 114 105 105 105 103 101
221 228 226 211 209 212 214 215 216 217 218 219 223 226 226 225 223 223 208 207 208 212 214 216 206 194 183 182 178 175 177 168 161 157 151 143 130 122 113 107 107 106 102
223 229 236 233 220 212 211 214 217 219 223 227 230 228 228 227 223 221 219 219 213 218 224 223 212 203 195 190 186 183 179 175 172 171 165 156 150 136 120 113 113 111 105
217 222 229 235 237 230 224 226 229 237 242 238 239 236 228 226 229 225 225 228 219 219 227 225 209 209 205 200 196 191 191 191 187 183 179 174 168 151 138 128 131 122 114
244 218 221 232 233 248 246 243 244 245 249 247 243 246 242 233 228 227 227 228 223 224 230 225 214 214 213 210 206 203 200 202 200 198 197 192 188 172 163 166 165 147 139
291 249 225 224 229 241 239 248 250 251 252 252 253 254 253 244 236 229 230 228 228 223 229 219 227 223 220 217 213 212 211 209 209 209 208 205 202 192 191 191 179 173 168
295 269 253 235 230 233 236 241 244 249 244 245 247 260 261 256 246 233 230 226 230 230 238 242 223 230 225 221 220 221 221 219 218 218 216 215 212 206 207 207 204 200 207
278 266 257 249 237 234 231 239 240 240 238 235 223 214 214 254 251 250 253 237 232 236 238 251 219 227 228 226 226 227 228 229 227 225 222 223 220 214 200 218 225 225 228
270 268 254 245 234 227 228 231 239 240 235 228 227 218 229 251 253 254 253 247 248 238 240 242 236 229 231 232 229 231 231 233 233 230 227 227 224 220 219 219 235 243 246
264 264 262 238 233 236 232 234 238 241 234 230 232 227 248 264 256 257 247 250 242 247 246 244 242 236 233 233 231 233 236 236 236 235 234 229 227 225 217 221 221 229 251
259 255 253 239 236 238 237 236 238 242 243 239 247 253 261 264 262 259 252 247 251 247 244 243 239 239 236 233 236 236 237 240 239 238 237 234 233 228 220 223 237 231 237
254 249 248 239 238 242 241 244 245 248 248 247 250 253 258 264 268 264 256 252 249 249 246 242 241 241 230 233 238 237 237 242 244 240 238 238 236 231 225 227 230 235 240
251 239 244 244 247 247 241 244 246 249 246 244 250 256 264 267 270 270 264 256 246 244 245 245 245 240 223 222 234 240 242 240 245 245 241 239 237 233 232 233 235 236 243
254 233 237 245 249 243 238 243 246 246 247 248 254 259 263 267 267 268 263 257 255 253 246 240 242 246 225 222 222 235 238 240 250 247 248 242 240 238 236 234 237 237 239
250 238 231 241 246 228 233 241 248 253 257 260 264 267 268 266 267 262 261 260 261 259 248 242 244 245 229 223 215 220 241 250 249 246 248 244 242 241 238 236 240 239 240
249 229 230 238 225 228 238 252 260 264 264 266 269 269 270 273 276 270 265 257 267 254 251 244 240 235 234 221 214 225 236 245 247 243 245 243 240 241 238 240 243 239 241
264 218 207 211 220 232 251 258 261 264 266 268 272 275 273 272 273 271 264 260 268 256 246 242 239 234 223 214 211 213 223 238 252 250 246 245 244 242 242 243 243 242 244
28 194 212 211 232 249 259 268 269 265 267 278 282 283 282 277 276 260 260 261 262 252 248 240 238 232 221 210 219 219 225 239 242 252 248 247 245 244 244 245 245 244 242
28 24 247 275 284 278 272 271 265 257 259 282 309 305 288 279 278 264 256 256 257 250 248 217 212 213 213 217 217 222 229 240 243 250 262 261 251 245 245 246 243 244 245
15 15 14 292 270 291 308 273 234 215 228 252 314 26 18 328 277 273 256 255 255 247 243 227 225 229 219 220 222 232 238 241 241 245 251 252 254 247 246 252 255 257 259